#timestamp,LO_Frequency,Hit,StdDev 
1570248015.9,286047001.3,N
1570248035.7,286047006.9,N
1570248055.6,286047006.6,N
1570248075.4,286047006.7,N
1570248095.2,286047008.9,N
1570248115.1,286047009.4,N
1570248116.0,286047009.4,N
1570248135.8,286047011.4,N
1570248155.6,286047009.6,N
1570248175.5,286047007.9,N
1570248195.3,286047006.2,N
1570248215.2,286047006.4,N
1570248235.9,286047006.5,N
1570248255.7,286047007.5,N
1570248275.6,286047005.4,N
1570248295.4,286047002.0,N
1570248315.2,286047003.2,N
1570248335.1,286047004.0,N
1570248336.0,286047004.0,N
1570248355.8,286047006.0,N
1570248375.7,286047004.9,N
1570248395.5,286047006.5,N
1570248415.3,286047008.7,N
1570248435.2,286047008.4,N
1570248455.0,286047007.9,N
1570248455.9,286047007.9,N
1570248475.8,286047007.4,N
1570248495.6,286047007.6,N
1570248515.4,286047006.7,N
1570248535.3,286047007.3,Y
1570248555.1,286046998.1,P
1570248575.8,286046998.1,N
1570248595.7,286046999.8,N
1570248615.5,286047000.3,N
1570248635.4,286047002.2,N
1570248655.2,286047000.6,N
1570248675.0,286047002.5,N
1570248675.9,286047002.5,N
1570248695.8,286046998.4,N
1570248715.6,286046999.3,N
1570248735.4,286046998.6,N
1570248755.3,286046999.9,N
1570248775.1,286047004.2,N
1570248795.9,286047003.3,N
1570248815.7,286047001.5,N
1570248835.5,286046999.9,N
1570248855.4,286047002.3,N
1570248875.2,286047005.7,N
1570248895.0,286047007.0,N
1570248895.9,286047007.0,N
1570248915.8,286047003.0,N
1570248935.6,286047003.7,N
1570248955.5,286047000.4,N
1570248975.3,286046999.2,N
1570248995.1,286046999.4,N
1570249015.9,286046996.5,N
1570249035.7,286046996.2,N
1570249055.5,286046996.2,N
1570249075.4,286046997.8,N
1570249095.2,286046996.7,N
1570249115.1,286046997.0,N
1570249116.0,286046997.0,N
1570249135.8,286046997.1,N
1570249155.6,286046997.0,N
1570249175.5,286046999.5,N
1570249195.3,286046996.9,N
1570249215.1,286046997.0,N
1570249235.9,286046997.4,N
1570249255.7,286046997.7,N
1570249275.6,286046999.6,N
1570249295.4,286046995.1,N
1570249315.2,286046996.2,N
1570249335.1,286046995.4,N
1570249336.0,286046995.4,N
1570249355.8,286046995.7,N
1570249375.6,286046994.7,N
1570249395.5,286046993.9,N
1570249415.3,286046994.2,N
1570249435.2,286046991.7,N
1570249455.9,286046995.4,N
1570249475.7,286046993.9,N
1570249495.6,286046993.7,N
1570249515.4,286046996.8,N
1570249535.2,286046993.7,Y
1570249555.1,286046999.5,P
1570249556.0,286046999.5,N
1570249575.8,286046998.8,N
1570249595.7,286046998.8,N
1570249615.5,286046998.8,N
1570249635.3,286046997.0,N
1570249655.2,286046996.9,N
1570249675.0,286046997.7,N
1570249675.9,286046997.7,N
1570249695.8,286046999.6,N
1570249715.6,286047000.5,N
1570249735.4,286047001.2,N
1570249755.3,286047000.6,N
1570249775.1,286046996.5,N
1570249795.8,286047000.4,N
1570249815.7,286046999.7,N
1570249835.5,286047001.5,N
1570249855.3,286047003.0,N
1570249875.2,286047003.9,N
1570249895.0,286047002.3,N
1570249895.9,286047002.3,N
1570249915.8,286046999.9,N
1570249935.6,286047000.9,N
1570249955.4,286047001.9,N
1570249975.3,286047000.1,N
1570249995.1,286047001.2,N
1570250015.8,286046998.8,N
1570250035.7,286046999.0,N
1570250055.5,286046997.1,N
1570250075.4,286046997.3,N
1570250095.2,286046997.7,N
1570250115.0,286046997.0,N
1570250115.9,286046997.0,N
1570250135.8,286046996.8,N
1570250155.6,286047000.0,N
1570250175.5,286047002.0,N
1570250195.3,286047001.4,N
1570250215.1,286047001.5,N
1570250235.9,286047003.4,N
1570250255.7,286047003.9,N
1570250275.5,286047005.5,N
1570250295.4,286047003.0,N
1570250315.2,286047005.6,N
1570250335.1,286047005.0,N
1570250336.0,286047005.0,N
1570250355.8,286047005.9,N
1570250375.6,286047003.3,N
1570250395.5,286046999.8,N
1570250415.3,286047002.1,N
1570250435.1,286047002.5,N
1570250455.9,286047000.0,N
1570250475.7,286046999.6,N
1570250495.6,286046993.7,N
1570250515.4,286046996.4,N
1570250535.2,286046997.7,N
1570250555.1,286046995.6,N
1570250556.0,286046995.6,N
1570250575.8,286046996.1,N
1570250595.6,286046997.2,N
1570250615.5,286046994.5,N
1570250635.3,286046993.6,N
1570250655.2,286046994.3,N
1570250675.9,286046992.1,N
1570250695.7,286046991.5,N
1570250715.6,286046991.2,N
1570250735.4,286046988.2,N
1570250755.2,286046988.4,N
1570250775.1,286046987.8,N
1570250776.0,286046987.8,N
1570250795.8,286046985.8,N
1570250815.7,286046989.7,N
1570250835.5,286046991.5,N
1570250855.3,286046989.0,N
1570250875.2,286046990.3,N
1570250895.0,286046990.8,N
1570250895.9,286046990.8,N
1570250915.8,286046989.6,N
1570250935.6,286046989.7,N
1570250955.4,286046989.7,N
1570250975.3,286046989.5,N
1570250995.1,286046983.7,Y
1570251015.8,286046995.3,P
1570251035.7,286046995.0,P
1570251055.5,286046999.6,N
1570251075.6,286046995.6,N
1570251095.4,286046995.0,N
1570251115.2,286046995.1,N
1570251135.1,286046997.8,N
1570251136.0,286046997.8,N
1570251155.8,286046997.3,N
1570251175.7,286046996.5,N
1570251195.5,286046996.5,N
1570251215.3,286046993.3,Y
1570251235.2,286047000.4,P
1570251255.9,286047005.6,N
1570251275.7,286047003.2,N
1570251295.6,286047007.2,N
1570251315.4,286047004.7,N
1570251335.2,286047004.8,N
1570251355.1,286047007.2,N
1570251356.0,286047007.2,N
1570251375.8,286047007.3,N
1570251395.7,286047008.5,N
1570251415.5,286047007.6,N
1570251435.3,286047007.1,N
1570251455.2,286047006.3,N
1570251475.0,286047006.6,N
1570251475.9,286047006.6,N
1570251495.8,286047004.5,N
1570251515.6,286047007.2,N
1570251535.4,286047003.5,N
1570251555.3,286047005.3,N
1570251575.1,286047003.7,N
1570251576.0,286047003.7,N
1570251595.8,286047001.4,N
